Location: Sceptre
(50.8619°N, 109.2670°W)
Time: 05:56:04
(UTC+00:00)

ZACube-1 - Visible Passes

Search period start: 28 June 2022 00:00
Search period end: 08 July 2022 00:00
Orbit: 581 x 662 km, 97.6° (Epoch: 27 June)

Date Brightness Start Highest point End Pass type
(mag) Time Alt. Az. Time Alt. Az. Time Alt. Az.
29 Jun ? 09:45:00 10° ENE 09:45:44 10° E 09:46:30 10° E visible
30 Jun ? 10:01:08 10° NE 10:03:48 15° E 10:06:29 10° SE visible
01 Jul ? 10:18:19 10° NE 10:21:49 22° E 10:25:20 10° SE visible
05 Jul ? 09:54:18 10° NE 09:56:37 14° E 09:58:55 10° ESE visible
06 Jul ? 10:11:19 10° NE 10:14:38 20° E 10:17:57 10° SE visible
